Location: Roma
(41.9028°N, 12.4964°E)
Time: 22:57:02
(UTC+01:00)

ISS - Visible Passes

Search period start: 23 January 2018 00:00
Search period end: 02 February 2018 00:00
Orbit: 402 x 407 km, 51.6° (Epoch: 23 January)

Date Brightness Start Highest point End Pass type
(mag) Time Alt. Az. Time Alt. Az. Time Alt. Az.
24 Jan -2.3 19:01:29 10° SSW 19:03:25 26° S 19:03:25 26° S visible
25 Jan -2.0 18:10:01 10° S 18:12:16 18° SE 18:13:38 14° ESE visible
25 Jan -1.0 19:45:16 10° WSW 19:46:19 19° WSW 19:46:19 19° WSW visible
26 Jan -4.0 18:52:52 10° SW 18:56:07 81° SE 18:56:26 70° ENE visible
27 Jan -3.2 18:00:45 10° SSW 18:03:50 41° SE 18:06:27 13° ENE visible
27 Jan -1.4 19:37:27 10° W 19:39:08 22° WNW 19:39:08 22° WNW visible
28 Jan -3.1 18:44:44 10° WSW 18:47:53 45° NNW 18:49:04 30° NNE visible
29 Jan -3.8 17:52:13 10° WSW 17:55:29 81° NW 17:58:45 10° NE visible
29 Jan -1.4 19:29:51 10° WNW 19:31:37 19° NW 19:31:37 19° NW visible
30 Jan -2.2 18:36:56 10° W 18:39:45 26° NNW 18:41:26 17° NNE visible
31 Jan -1.4 19:22:14 10° NW 19:23:51 15° NNW 19:23:51 15° NNW visible
01 Feb -1.7 18:29:17 10° WNW 18:31:40 18° NNW 18:33:35 12° NNE visible
